Location: City of Popejoy
(42.5939°N, 93.4278°W)
Time: 04:21:54
(UTC+00:00)

Daily predictions for brighter satellites

Satellite Brightness Start Highest point End
(mag) Time Altitude Azimuth Time Altitude Azimuth Time Altitude Azimuth
MOS 1 4.4 02:16:37 10° SSE 02:22:19 81° ENE 02:28:03 10° NNW
FALCON 9 DEB 4.1 02:22:56 10° S 02:25:24 22° SE 02:27:52 10° E
Cosmos 1238 4.2 02:23:00 10° S 02:26:22 90° N 02:29:24 10° N
IGS 5A 4.0 02:23:13 10° SE 02:27:10 43° ENE 02:31:07 10° N
Resurs 1-3 3.6 02:22:49 10° SSE 02:27:11 84° ENE 02:31:36 10° NNW
USA 186 3.9 02:25:27 10° SSW 02:27:50 23° W 02:30:21 10° NW
Cosmos 1461 4.0 02:27:35 10° NNW 02:31:26 33° NE 02:35:06 10° ESE
COSMOS 2428 4.5 02:29:38 10° ESE 02:32:03 13° E 02:34:29 10° ENE
Cosmos 1315 Rocket 2.9 02:30:42 10° N 02:34:51 84° ENE 02:38:57 10° S
ATLAS CENTAUR R/B 3.5 02:33:01 10° N 02:36:08 19° NE 02:39:24 10° E
Cosmos 2237 4.3 02:30:37 10° S 02:36:10 58° ESE 02:41:45 10° NNE
Terra 4.0 02:35:45 10° E 02:37:35 12° ENE 02:39:25 10° NE
Cosmos 1741 Rocket 4.5 02:33:23 10° N 02:38:30 49° ENE 02:43:37 10° SE
Cosmos 1626 3.9 02:36:18 10° SE 02:38:42 17° E 02:41:06 10° NE
Cosmos 1844 Rocket 3.5 02:33:29 10° N 02:38:47 39° ENE 02:44:03 10° SE
Cosmos 1707 2.7 02:35:57 10° S 02:39:48 86° E 02:43:44 10° N
Meteor 1-21 4.3 02:34:51 10° S 02:40:31 84° W 02:46:10 10° N
Cosmos 1025 Rocket 4.4 02:38:51 10° SE 02:42:15 22° E 02:45:40 10° NE
Ariane Rocket 3.4 02:41:20 10° S 02:46:23 66° WSW 02:51:29 10° NNW
ERS-2 3.8 02:43:05 10° N 02:46:30 37° WNW 02:49:53 10° SW
SPOT 3 Rocket 3.6 02:42:39 10° SSE 02:47:45 68° ENE 02:52:55 10° N
SL-4 R/B 4.1 02:49:24 10° ESE 02:49:24 10° ESE 02:44:18 - S
CZ-2C R/B 4.2 02:44:29 10° NNE 02:49:06 46° E 02:53:39 10° S
CENTAUR R/B 4.0 02:43:32 10° WSW 02:49:12 43° NW 02:55:57 10° NNE
Cosmos 2263 Rocket 3.5 02:47:56 10° NW 02:53:05 36° WSW 02:58:14 10° S
Lacrosse 5 2.7 02:48:58 10° WNW 02:53:46 44° SW 02:58:33 10° SSE
Cosmos 1758 3.4 02:51:29 10° N 02:55:28 79° W 02:59:24 10° S
FALCON 9 DEB 4.2 02:52:25 10° WSW 02:55:44 49° NNW 02:59:05 10° NE
Lacrosse 5 rocket 0.9 02:52:56 10° SW 02:56:40 76° SE 03:00:17 10° NE
MetOp-B 4.2 02:52:31 10° SSE 02:57:49 69° ENE 03:03:09 10° N
In-Cosmos 22 4.0 02:53:41 10° S 02:58:57 85° E 03:04:16 10° N
ATLAS 2A CENTAUR R/B 4.2 02:47:23 10° SW 02:59:01 20° S 03:03:32 12° SSE
USA 245 4.3 02:58:44 12° SSE 03:03:09 57° ENE 03:08:51 10° N
Cosmos 1975 Rocket 3.0 03:00:18 10° S 03:04:37 75° E 03:09:02 10° NNE
Landsat 7 3.9 03:00:00 10° SSE 03:04:44 84° WSW 03:09:32 10° NNW
Cosmos 1727 Rocket 4.1 02:59:58 10° S 03:06:18 85° W 03:12:36 10° N
BREEZE-M DEB (TANK) 3.3 03:03:06 10° NW 03:06:52 38° NNE 03:08:34 13° E
Cosmos 1110 Rocket 3.9 03:04:33 10° S 03:09:42 71° ESE 03:14:54 10° NNE
Cosmos 2333 4.5 03:04:20 10° S 03:09:50 48° ESE 03:15:20 10° NE
Resurs 01 Rocket 2.2 03:07:11 10° S 03:11:29 57° W 03:15:50 10° NNW
SL-14 R/B 4.3 03:12:11 18° SE 03:14:28 30° E 03:18:00 10° NNE
KORONAS-FOTON 3.8 03:12:44 10° S 03:16:32 86° W 03:20:20 10° N
USA 81 4.5 03:13:59 10° NNW 03:19:12 62° W 03:24:22 10° S
Cosmos 1953 2.3 03:16:21 10° N 03:20:26 84° E 03:23:32 17° S
Cosmos 2333 Rocket 2.4 03:17:43 10° S 03:23:16 51° ESE 03:28:48 10° NE
Cosmos 1674 2.9 03:19:57 10° SSW 03:23:38 69° W 03:27:20 10° N
Cosmos 2219 Rocket 2.5 03:19:33 10° S 03:24:55 45° ESE 03:30:17 10° NE
BREEZE-M DEB (TANK) 1.3 03:24:52 10° WSW 03:27:11 83° SSE 03:30:59 10° ENE
Cosmos 1802 Rocket 4.1 03:22:25 10° N 03:28:42 67° E 03:33:34 18° SSE
ASTRO E2 4.5 03:28:10 10° SW 03:30:13 16° S 03:30:13 16° S
Meteor 2-11 Rocket 4.4 03:26:45 10° N 03:32:53 80° E 03:37:36 18° SSE
Cosmos 1459 Rocket 3.9 03:27:11 10° N 03:33:16 88° E 03:38:14 16° S
Cosmos 1844 3.7 03:27:40 10° NNW 03:33:17 84° ENE 03:37:07 21° SSE
FALCON 9 DEB 2.7 03:30:33 10° SW 03:33:40 87° SE 03:36:48 10° NE
Cosmos 1300 3.4 03:37:06 10° N 03:40:41 38° ENE 03:42:05 27° ESE
Cosmos 2237 Rocket 3.6 03:44:17 18° ESE 03:45:13 19° E 03:49:00 10° ENE
Geosat 4.1 03:42:57 24° SE 03:45:59 71° ENE 03:51:01 10° NNW
ERS-1 Rocket 3.0 03:44:13 24° SSE 03:47:18 76° ENE 03:52:22 10° N
Cosmos 1544 Rocket 3.6 03:43:43 10° N 03:48:12 79° W 03:50:53 23° S
Cosmos 1340 2.5 03:46:01 24° S 03:48:13 82° E 03:52:00 10° NNE
ARIANE 5 R/B 2.7 03:45:36 23° S 03:48:22 78° WSW 03:52:52 10° NNW
Cosmos 2360 Rocket 3.2 03:43:24 10° SW 03:48:50 47° WNW 03:54:17 10° NNE
Spot 2 Rocket 3.7 03:46:38 20° S 03:50:11 69° WSW 03:55:16 10° NNW
FALCON 9 DEB 4.0 03:47:33 10° WSW 03:50:33 46° NNW 03:53:33 10° NE
Cosmos 1455 Rocket 4.1 03:48:25 10° NNW 03:52:37 41° W 03:56:08 14° SSW
Meteor 1-24 Rocket 3.9 03:49:56 25° SSE 03:52:42 48° E 03:57:56 10° NNE
Cosmos 2322 Rocket 4.3 03:47:54 10° WSW 03:52:45 28° NW 03:57:37 10° N
FALCON 9 DEB 3.7 03:54:27 10° WSW 03:57:29 52° NNW 04:00:33 10° NE
FALCON 9 DEB 4.3 03:57:53 10° WSW 04:00:51 40° NNW 04:03:49 10° NE
SL-8 R/B 3.8 03:56:13 10° WNW 04:00:56 62° SSW 04:02:55 33° SE
Cosmos 1864 Rocket 4.4 03:54:47 10° N 04:01:00 87° E 04:04:49 25° S
ATLAS 3B R/B 2.7 03:55:52 10° SW 04:02:24 80° NW 04:09:10 10° NNE
Cosmos 2123 Rocket 4.1 04:03:20 15° SSW 04:08:42 77° W 04:15:04 10° N
Cosmos 2061 Rocket 4.1 04:02:35 10° N 04:09:02 79° W 04:13:10 24° S
Uosat 12 SS-18 rocket 4.0 04:06:19 15° SSW 04:09:52 82° ESE 04:14:46 10° NE
Cosmos 1461 4.5 04:06:56 10° WNW 04:10:19 24° WSW 04:11:53 19° SSW
Cosmos 389 Rocket 3.5 04:09:17 10° N 04:12:22 31° ENE 04:12:39 30° E
Cosmos 1626 3.9 04:10:27 10° SW 04:13:39 29° WNW 04:16:55 10° NNW
Terra 1.8 04:12:29 33° S 04:14:38 84° WSW 04:19:25 10° NNW
Cosmos 2322 4.1 04:09:04 10° SW 04:14:39 62° WNW 04:20:17 10° NNE
Cosmos 1302 Rocket 4.3 04:09:49 10° SSW 04:15:02 68° WNW 04:20:17 10° NNE
ATLAS CENTAUR R/B 1.7 04:11:01 10° NW 04:15:23 64° WSW 04:16:58 38° S
COSMOS 2428 2.7 04:10:07 12° SSW 04:15:27 88° WNW 04:21:15 10° NNE
SL-12 R/B (Aux Motor) 4.4 04:15:50 46° SSW 04:16:31 66° SSE 04:22:09 10° ENE
Cosmos 2233 Rocket 4.0 04:10:23 10° N 04:16:33 73° E 04:19:39 31° SSE
Cosmos 1346 Rocket 3.0 04:17:00 45° SE 04:17:41 51° E 04:21:36 10° NNE
SPOT 5 3.4 04:15:59 25° SSW 04:18:48 55° W 04:23:37 10° NNW
Cosmos 1536 Rocket 4.0 04:17:04 22° SSW 04:19:49 59° W 04:24:13 10° N
Cosmos 2278 Rocket 2.9 04:14:28 10° NNW 04:19:52 43° ENE 04:22:35 26° ESE
Cosmos 1844 Rocket 4.0 04:17:35 10° NW 04:22:33 32° WSW 04:25:49 18° SSW
SL-4 R/B 1.8 04:23:59 16° SW 04:27:14 66° SE 04:31:05 10° ENE
Cosmos 2228 3.2 04:23:34 10° N 04:27:57 62° E 04:29:00 46° SE
USA 215 3.4 04:22:21 10° ENE 04:28:40 50° SE 04:32:55 21° SSW
Lacrosse 5 rocket 4.0 04:33:30 10° WNW 04:36:06 18° NNW 04:38:40 10° NNE
Cosmos 1867 3.5 04:34:57 10° NNW 04:40:29 85° ENE 04:42:25 42° SE
Cosmos 1943 Rocket 4.4 04:44:59 10° N 04:48:24 16° NE 04:51:48 10° E
Cosmos 1607 4.3 04:42:30 10° NNW 04:48:51 58° NE 04:51:54 30° ESE
Iridium 2 3.6 04:49:18 65° E 04:49:18 65° E 04:53:01 10° N
Meteor 2-10 Rocket 3.4 04:44:39 10° NNW 04:49:42 74° W 04:51:13 45° S
Cosmos 968 Rocket 3.8 04:46:56 10° NNW 04:51:56 54° WSW 04:53:28 39° SSW
Cosmos 1486 Rocket 4.0 04:49:02 10° NNW 04:54:13 71° WSW 04:55:40 47° S
Cosmos 1980 3.6 04:53:23 39° S 04:55:34 78° ESE 05:01:17 10° NNE
Cosmos 1992 Rocket 4.3 04:57:08 29° SW 04:59:47 65° WNW 05:05:00 10° NNE
USA 267 4.4 04:55:34 10° E 05:01:34 41° NNE 05:07:36 10° NW
Okean 1-7 Rocket 4.0 05:02:36 45° ESE 05:02:48 45° E 05:07:03 10° NNE
Cosmos 1464 Rocket 4.2 04:58:56 10° N 05:05:17 65° E 05:07:30 41° SE
Cosmos 1455 2.1 05:02:35 10° N 05:06:21 81° ENE 05:06:21 81° ENE
Cosmos 2333 Rocket 4.2 05:03:01 10° WSW 05:07:48 27° NW 05:12:37 10° N
Cosmos 2219 Rocket 4.0 05:04:07 10° WSW 05:09:01 29° NW 05:13:57 10° N
ATLAS CENTAUR R/B 2.8 05:08:15 48° S 05:09:28 61° SE 05:19:53 10° NE
Cosmos 1354 Rocket 4.0 05:04:36 10° NNW 05:09:58 79° ENE 05:11:17 52° SE
Spot 4 3.8 05:10:00 56° SE 05:10:54 73° ENE 05:15:40 10° N
Cosmos 2058 Rocket 2.9 05:09:36 10° N 05:14:02 74° E 05:14:26 68° SE
Cosmos 1726 Rocket 3.7 05:10:58 10° NNW 05:15:24 63° W 05:15:58 57° SW
Meteor 2-1 Rocket 4.2 05:11:29 10° N 05:17:01 72° E 05:18:25 50° SE
SL-16 R/B 2.6 05:25:29 43° ESE 05:26:03 44° ESE 05:31:25 10° NE
Cosmos 2237 Rocket 2.5 05:26:03 31° SW 05:28:42 62° WNW 05:34:17 10° NNE
Cosmos 1184 Rocket 3.9 05:29:27 42° NW 05:29:27 42° NW 05:32:01 10° N
SJ 16-02 2.8 05:26:12 10° N 05:29:56 27° ENE 05:30:54 24° E
Cosmos 1892 Rocket 4.3 05:32:32 40° WSW 05:33:23 45° WNW 05:37:41 10° N
GP-B 4.3 05:30:08 10° NNE 05:34:01 29° E 05:34:10 29° E
Cosmos 2369 Rocket 4.2 05:35:34 10° N 05:39:56 22° NE 05:44:12 10° E
Cosmos 2034 Rocket 3.9 05:34:42 10° N 05:40:55 84° E 05:42:38 51° SSE
ALOS 2 2.4 05:43:59 82° SSE 05:44:09 90° WSW 05:48:34 10° NNW
USA 229 DEB 4.2 05:44:47 36° SE 05:45:21 37° ESE 05:51:22 10° NE
USA 229 4.2 05:44:54 36° SE 05:45:28 36° ESE 05:51:28 10° NE
COBE Rocket 4.0 05:47:21 58° SW 05:48:03 66° W 05:52:59 10° NNW
GEOS 3 Rocket 3.6 05:47:15 58° S 05:48:13 73° SW 05:53:35 10° NW
SAR-Lupe-2 4.3 05:49:09 10° NNE 05:51:57 49° NE 05:51:57 49° NE
NOSS 3-1 (C) 3.1 05:53:14 59° SSE 05:53:49 63° ESE 05:59:47 10° NE
BREEZE-M DEB (TANK) 4.4 05:57:01 38° SE 05:58:10 41° ESE 06:14:15 10° ENE
Cosmos 1626 Rocket 3.6 06:01:20 67° WSW 06:01:33 68° W 06:05:59 10° N
Aureole 3 4.1 05:58:39 10° N 06:02:32 49° E 06:02:49 48° E
Cosmos 2278 Rocket 3.3 05:58:56 10° NW 06:03:43 29° WSW 06:04:25 28° WSW
NOSS 2-3 (E) 3.9 06:04:41 52° E 06:04:41 52° E 06:08:35 10° NE
Cosmos 1441 Rocket 4.5 06:04:25 32° WNW 06:04:30 32° WNW 06:07:58 10° N
NOSS 3-1 (A) 3.6 06:04:54 42° ESE 06:05:03 42° ESE 06:10:38 10° NE
Cosmos 1892 4.2 06:05:52 28° ENE 06:05:52 28° ENE 06:08:45 10° NNE
Cosmos 2297 3.7 06:00:04 10° NNW 06:05:43 73° ENE 06:07:11 50° SE
SL-4 R/B 3.7 06:03:27 10° W 06:07:01 30° NNW 06:10:22 10° NE
USA 32 3.9 06:02:09 10° N 06:07:26 87° E 06:08:14 65° S
Tsikada Rocket 3.9 06:05:58 51° SSW 06:07:39 84° W 06:13:51 10° N
Nimbus 7 Rocket 4.4 06:02:15 10° NNE 06:08:20 86° WNW 06:10:03 50° SSW
Cosmos 1602 Rocket 3.5 06:09:18 78° WSW 06:09:26 79° W 06:13:56 10° N
USA 215 3.9 06:05:22 10° NE 06:11:43 55° NNW 06:18:02 10° WSW
Meteor 1-4 Rocket 3.6 06:08:45 10° NNW 06:11:12 38° NW 06:11:12 38° NW
Cosmos 1763 Rocket 4.2 06:15:44 36° ESE 06:15:59 36° ESE 06:20:38 10° NE
Cosmos 1758 Rocket 3.5 06:17:12 74° E 06:17:12 74° E 06:21:38 10° NNE
Meteor 1-11 4.1 06:17:12 58° SSW 06:18:21 82° W 06:23:58 10° N
Meteor 1-27 4.3 06:17:18 10° N 06:22:51 67° ENE 06:24:10 50° SE
Thor Agena Rocket 3.4 06:17:48 10° NNE 06:23:04 88° WNW 06:23:55 64° SSW
Cosmos-2242 3.1 06:20:48 10° N 06:25:12 70° E 06:25:20 69° E
Resurs 1-4 Rocket 4.3 06:23:29 10° ENE 06:26:00 13° E 06:27:37 12° ESE
In-Cosmos 22 Rocket 4.4 06:26:02 49° SE 06:27:04 56° E 06:32:26 10° NNE
Cosmos 1825 3.7 06:32:05 26° E 06:32:05 26° E 06:34:56 10° NNE
Cosmos 1943 Rocket 2.0 06:27:22 10° NNW 06:32:54 87° WSW 06:33:59 59° SSE
PSLV R/B 3.4 06:29:48 10° NNE 06:34:10 85° ESE 06:34:18 83° SSE
X-37B 3.4 06:37:56 13° ENE 06:37:56 13° ENE 06:38:21 10° ENE
Cosmos 1408 3.3 06:36:19 48° NE 06:36:19 48° NE 06:39:20 10° NNE
Transit 2A Rocket 4.4 06:37:32 88° NE 06:37:32 88° NE 06:41:55 10° NNE
Cosmos 1943 3.7 06:38:48 40° SE 06:39:38 42° ESE 06:44:55 10° NE
Cosmos 405 Rocket 3.5 06:44:03 41° ENE 06:44:03 41° ENE 06:47:03 10° NNE
USA 267 3.1 06:41:13 35° SE 06:44:17 77° SW 06:50:51 10° NW
NOSS 2-3 (D) 3.7 06:44:37 59° W 06:45:02 63° NW 06:49:42 10° NNE
CZ-2D R/B 3.9 06:41:58 10° NE 06:45:39 19° E 06:47:12 17° ESE
Cosmos 1812 Rocket 4.4 06:44:06 10° NNW 06:47:58 36° W 06:47:58 36° W
Cosmos 1603 4.0 06:47:29 47° SE 06:48:30 53° ESE 06:54:00 10° NNE
Cosmos 2058 3.9 06:49:06 34° E 06:49:12 34° E 06:52:55 10° NNE
Cosmos 1356 4.2 06:51:13 50° NNE 06:51:13 50° NNE 06:53:49 10° N
Cosmos 2221 3.8 06:50:44 10° NNE 06:54:36 31° ENE 06:55:40 28° ESE
Cosmos 540 Rocket 4.0 06:54:25 41° SE 06:55:08 44° ESE 06:59:59 10° NNE
Cosmos 2279 Rocket 3.9 06:51:09 10° N 06:57:25 86° W 06:59:19 48° S
DELTA 2 R/B (1) 3.8 06:59:52 47° SE 06:59:52 47° SE 07:04:37 10° E
Cosmos 1634 Rocket 4.4 06:53:48 10° NNW 06:59:55 52° W 07:01:35 41° SW
USA 307 4.2 07:02:25 28° ESE 07:02:25 28° ESE 07:05:11 10° ENE
Cosmos 990 Rocket 3.9 06:56:22 10° NNW 07:01:34 89° ENE 07:02:41 57° SSE
NOSS 2-3 (C) 4.4 07:00:52 35° W 07:01:58 43° NW 07:06:33 10° NNE
BREEZE-M DEB (TANK) 3.9 06:58:08 10° W 07:02:03 28° NNW 07:04:14 10° NE
Cosmos 841 Rocket 4.0 07:03:21 41° SE 07:04:16 46° ESE 07:09:10 10° NNE
YAOGAN 11 4.4 07:05:57 51° SE 07:06:49 64° ENE 07:11:17 10° N
SJ 16-02 2.7 07:04:42 10° NW 07:07:51 27° W 07:07:51 27° W
SL-16 R/B 3.7 07:07:20 19° W 07:10:19 29° NW 07:15:15 10° N
Cosmos 1656 Rocket 4.0 07:06:58 10° NNW 07:12:39 66° ENE 07:15:31 29° SE
Cosmos 1825 Rocket 4.4 07:14:08 37° W 07:14:34 38° WNW 07:18:46 10° N
Cosmos 1937 Rocket 3.7 07:10:21 10° NNW 07:15:40 69° ENE 07:17:48 36° SE
Cosmos 1898 Rocket 3.4 07:10:33 10° NNW 07:15:48 87° WSW 07:17:07 52° SSE
USA 308 3.6 07:17:46 40° ESE 07:17:46 40° ESE 07:21:17 10° ENE
Helios 1B rocket 4.1 07:15:14 10° NE 07:18:29 23° E 07:19:18 21° ESE
USA 290 4.2 07:22:19 22° E 07:22:19 22° E 07:24:27 10° NE
Cosmos 1606 3.8 07:19:38 10° N 07:23:13 37° ENE 07:24:03 32° ESE
Cosmos 2369 Rocket 2.2 07:18:47 10° NNW 07:24:28 66° WSW 07:25:57 47° S
Helios 1A 2.8 07:26:31 70° S 07:26:58 88° WSW 07:31:11 10° NNW
CZ-4 R/B 3.7 07:24:40 10° N 07:29:21 78° WNW 07:30:18 56° SW
NOSS 2-2 (E) 3.6 07:30:03 46° E 07:30:03 46° E 07:33:09 10° NE
Exosat Rocket 4.2 07:27:41 35° SW 07:30:18 61° WNW 07:35:36 10° NNE
Nadezhda 4 Rocket 3.9 07:29:04 42° S 07:31:19 89° W 07:37:29 10° N
Cosmos 1814 Rocket 4.3 07:32:43 42° SSE 07:34:11 57° ESE 07:39:16 10° NNE
ATLAS 5 CENTAUR R/B 1.9 07:34:05 42° ESE 07:34:12 42° ESE 07:38:12 10° NE
USA 305 2.8 07:34:41 65° SSE 07:34:53 66° SE 07:39:07 10° ENE
USA 229 DEB 4.3 07:32:11 22° WSW 07:36:05 47° NW 07:42:41 10° NNE
USA 229 4.3 07:32:19 23° WSW 07:36:11 48° NW 07:42:48 10° NNE
Cosmos 2263 4.1 07:33:09 10° NNW 07:38:48 69° WSW 07:40:42 42° S
Lacrosse 4 Rocket 3.0 07:37:05 10° NNW 07:40:49 33° NE 07:44:29 10° ESE
NOSS 2-2 (C) 3.3 07:43:31 51° ESE 07:43:31 51° ESE 07:46:52 10° NE
Cosmos 1437 Rocket 2.9 07:40:02 10° NNW 07:43:43 54° W 07:43:43 54° W
Cosmos 1570 Rocket 4.0 07:43:24 43° S 07:45:04 72° ESE 07:50:17 10° NNE
Aureole 3 Rocket 3.6 07:41:54 10° N 07:45:58 64° E 07:48:34 29° SSE
SL-4 R/B 4.5 07:44:35 10° NW 07:47:24 20° N 07:50:05 10° NE
FALCON 9 DEB 4.4 07:45:30 10° NW 07:48:44 40° NNE 07:51:58 10° E
Cosmos 372 Rocket 4.0 07:44:30 10° NNW 07:49:47 78° ENE 07:52:44 27° SSE
Cosmos 1932 4.4 07:48:12 10° NW 07:54:19 61° WSW 07:57:20 30° S
USA 306 2.8 07:56:16 51° WSW 07:57:18 85° NW 08:01:34 10° NE
Cosmos 2098 Rocket 3.7 07:56:35 38° SW 07:58:20 56° W 08:02:50 10° N
Cosmos 921 Rocket 3.0 07:59:46 48° SW 08:00:40 63° WNW 08:04:50 10° N
Cosmos 2208 Rocket 4.1 07:58:36 38° S 08:00:45 80° ESE 08:06:14 10° NNE
Cosmos 1842 Rocket 3.8 07:56:56 10° NNW 08:01:07 48° W 08:01:48 43° WSW
ADEOS Rocket 3.9 07:54:21 10° SE 08:01:27 56° ENE 08:07:54 10° N
Cosmos 1437 2.8 07:58:56 10° N 08:01:23 62° NNE 08:01:23 62° NNE
SL-16 R/B 2.5 08:00:13 24° SSE 08:04:08 86° WSW 08:10:21 10° NNW
Resurs 1-4 Rocket 2.1 08:01:04 10° N 08:06:24 79° WNW 08:08:42 35° SSW
Cosmos 1825 4.0 08:06:51 19° W 08:07:11 19° WNW 08:09:58 10° NNW
Cosmos 1627 Rocket 4.5 08:06:29 30° S 08:09:53 90° ESE 08:16:18 10° N
X-37B 1.1 08:10:13 22° WNW 08:12:02 59° N 08:15:11 10° E
Cosmos 2151 2.9 08:11:14 40° S 08:12:39 81° E 08:16:53 10° N
Cosmos 1092 Rocket 3.9 08:09:41 32° SSW 08:12:41 72° W 08:18:50 10° N
MOZ.5/SAFIR/RUBIN 5/SL-8 4.5 08:12:43 33° WSW 08:13:37 37° W 08:18:02 10° NNW
CZ-4C R/B 3.8 08:12:05 13° SSE 08:14:39 20° ESE 08:18:27 10° ENE
Cosmos 1943 Rocket 4.2 08:14:16 10° W 08:15:28 11° W 08:15:28 11° W
Meteor 2-19 Rocket 4.5 08:12:44 31° SSW 08:15:45 68° W 08:21:53 10° N
Cosmos 1242 Rocket 3.2 08:12:24 10° NNW 08:15:46 38° W 08:15:50 38° W
ADEOS II 2.4 08:12:16 10° NNE 08:17:30 61° ESE 08:20:33 25° S
Cosmos 1076 Rocket 3.9 08:16:52 37° WSW 08:18:00 48° WNW 08:22:07 10° N
NPP 3.6 08:13:51 10° N 08:19:16 77° WNW 08:21:57 31° SSW
Cosmos 1943 4.5 08:20:36 18° WSW 08:23:48 30° NW 08:28:45 10° N
Meteor 2-3 Rocket 3.8 08:20:40 25° S 08:24:03 73° E 08:29:38 10° NNE
CZ-2D R/B 2.4 08:20:57 10° N 08:26:01 54° WNW 08:28:31 28° SW
AQUA 3.8 08:23:45 10° N 08:28:31 74° WNW 08:30:49 30° SSW
IDEFIX/ARIANE 42P 3.5 08:26:22 10° NNE 08:31:22 43° E 08:35:30 14° SSE
GPS 2-04 Rocket1 3.6 08:32:08 29° S 08:32:08 29° S 08:35:20 10° ESE
Cosmos 2221 4.0 08:28:42 10° NW 08:31:56 21° W 08:32:29 20° W
ERBS 2.7 08:35:36 39° S 08:36:18 47° SE 08:39:26 10° ENE
Cosmos 1271 Rocket 4.1 08:36:53 10° N 08:40:23 37° ENE 08:43:53 10° SE
Cosmos 1782 3.2 08:36:27 10° N 08:40:25 61° E 08:43:51 13° SSE
USA 307 3.7 08:38:29 19° W 08:41:15 45° NNW 08:45:21 10° NE
NOSS 2-2 (D) 4.1 08:39:47 23° W 08:41:16 35° NW 08:44:41 10° NNE
Cosmos 1809 Rocket 4.4 08:39:11 20° S 08:43:37 89° WNW 08:49:51 10° N
Cosmos 1633 4.0 08:43:38 21° W 08:44:22 22° WNW 08:47:13 10° NNW
DELTA 2 R/B (1) 3.5 08:40:36 13° W 08:45:26 65° S 08:50:56 10° E
Meteor 1-26 Rocket 4.3 08:40:30 10° N 08:46:24 89° W 08:52:25 10° S
CZ-4C R/B 4.2 08:43:40 10° SE 08:46:56 41° ENE 08:50:14 10° N
CBERS-1 4.2 08:43:50 10° NNE 08:48:59 73° ESE 08:52:55 17° S
IRS-1D 3.5 08:44:28 10° NNE 08:49:38 89° W 08:53:07 20° SSW
FALCON 9 DEB 4.4 08:47:06 10° NW 08:50:02 38° NNE 08:52:57 10° E
Helios 1B rocket 3.6 08:50:10 10° N 08:53:43 29° WNW 08:55:36 20° WSW
USA 290 4.3 08:55:04 15° W 08:56:12 17° WNW 08:58:25 10° NNW
USA 308 4.1 08:53:50 13° W 08:57:17 37° NNW 09:01:16 10° NE
Tianhe-1 3.0 08:58:01 16° SSE 08:58:31 16° SSE 09:00:37 10° ESE
Cosmos 1328 Rocket 3.8 08:55:58 10° N 09:00:20 71° E 09:04:42 10° SSE
Cosmos 2292 Rocket 3.5 09:03:15 26° WSW 09:04:15 34° W 09:07:01 10° N
Meteor 1-28 Rocket 3.4 09:05:33 17° S 09:08:15 53° W 09:12:00 10° NNW
Cosmos 1933 4.2 09:04:48 10° NNW 09:08:29 33° W 09:10:38 20° SW
BREEZE-M R/B 3.4 09:06:02 11° W 09:09:16 57° NNW 09:16:09 10° ENE
Cosmos 1553 Rocket 4.1 09:04:13 10° NNW 09:10:21 57° W 09:16:15 11° SSW
MSX 4.0 09:06:56 10° NNE 09:12:42 75° ESE 09:18:26 10° S
Meteor 1-29 4.2 09:10:10 10° NNW 09:13:05 27° WNW 09:14:47 18° WSW
Meteor 2-21 Rocket 4.5 09:09:18 13° S 09:14:56 80° W 09:21:09 10° N
SeaSat 1 2.6 09:11:06 10° NNE 09:16:03 73° ESE 09:20:26 13° SSW
S3M 4.0 09:10:29 10° N 09:16:39 76° W 09:22:51 10° S
Cosmos 2298 Rocket 4.5 09:12:13 10° NNW 09:17:13 42° WSW 09:22:11 10° S
ATLAS 5 CENTAUR R/B 3.3 09:15:48 10° W 09:19:00 22° NW 09:22:31 10° NNE
Lacrosse 4 Rocket 2.6 09:16:07 10° WNW 09:19:17 22° WSW 09:21:02 17° SW
Cosmos 1151 Rocket 3.3 09:18:59 10° NNW 09:23:05 48° W 09:27:04 11° SSW
USA 281 3.2 09:16:50 10° SSE 09:23:25 79° WSW 09:30:01 10° NNW
FALCON 9 DEB 4.0 09:22:36 10° WNW 09:25:29 26° SW 09:28:22 10° SSE
SL-4 R/B 3.4 09:24:24 10° NW 09:27:43 34° NNE 09:30:54 10° E
Meteor 2-6 Rocket 4.3 09:24:13 10° N 09:30:08 85° W 09:35:51 10° S
Cosmos 1766 Rocket 4.3 09:27:48 14° SW 09:31:12 38° WNW 09:35:24 10° N
Cosmos 1515 Rocket 3.6 09:27:22 10° N 09:31:50 86° E 09:36:17 10° S
Alouette 2 Rocket 3.9 09:29:55 10° NNW 09:33:19 39° W 09:37:26 10° SSW
Cosmos 1833 Rocket 3.2 09:27:53 10° S 09:33:24 58° ESE 09:38:57 10° NNE
Cosmos 1408 Rocket 3.6 09:29:04 10° SSW 09:33:30 73° W 09:37:59 10° N
Cosmos 1862 3.4 09:30:48 11° SSW 09:34:40 66° W 09:38:43 10° N
Cosmos 1125 Rocket 4.1 09:30:51 10° NW 09:35:40 37° WSW 09:40:30 10° SSW
Lacrosse 5 rocket 2.2 09:33:25 10° NW 09:36:56 47° NE 09:40:33 10° ESE
IRS-P3 4.2 09:32:06 10° N 09:37:25 73° WNW 09:42:42 10° SSW
CZ-4B R/B 3.6 09:34:36 10° NNE 09:39:55 90° NW 09:45:06 10° SSW
ARIANE 5 R/B 2.5 09:37:37 10° NNE 09:42:38 81° WNW 09:47:38 10° SSW
BREEZE-M DEB (TANK) 3.6 09:38:51 11° SW 09:42:48 35° SSE 09:45:28 10° E
NOSS 3-2 (A) 4.2 09:35:41 10° NW 09:43:22 86° ENE 09:52:02 10° SE
Meteor 1-27 Rocket 4.4 09:38:41 10° N 09:44:12 59° ENE 09:49:37 10° SSE
Resurs 1-4 Rocket 4.3 09:43:35 10° NW 09:45:20 12° WNW 09:47:04 10° WNW
COSMOS 2441 4.5 09:41:34 10° N 09:46:20 62° WNW 09:51:04 10° SSW
ADEOS Rocket 4.2 09:40:57 10° SSW 09:47:07 29° W 09:52:52 10° NW
SL-16 R/B 4.3 09:45:55 10° WSW 09:48:33 13° W 09:51:12 10° WNW
X-37B 0.9 09:45:36 10° W 09:48:39 45° SSW 09:51:42 10° SE
deb Kosmos-1763 4.3 09:49:23 10° SW 09:52:48 49° WNW 09:56:16 10° N
Cosmos 2266 Rocket 4.3 09:48:08 10° SSW 09:53:59 47° WNW 09:59:50 10° N
ADEOS II 3.8 09:53:06 10° NNW 09:56:42 19° WNW 10:00:16 10° WSW
Cosmos 2082 Rocket 3.2 09:51:37 10° S 09:56:54 44° ESE 10:02:12 10° NE
FALCON 9 DEB 2.9 09:55:48 10° WNW 09:58:53 58° SW 10:01:56 10° SE
ASTEX 1 4.4 09:56:59 10° SSW 10:01:15 29° W 10:05:32 10° NNW
CZ-4C R/B 2.4 09:57:39 10° SW 10:02:25 55° NW 10:08:10 10° NNE
CZ-2D R/B 3.6 10:01:53 10° N 10:06:00 57° WNW 10:09:58 10° SSW
